Regional Weather Roundup
Issued by NWS Goodland, KS

Home | Current Version | Previous Version | Graphics & Text | Print | Product List | Glossary On
Versions: 1 2 3 4 5 6 7 8 9 10 11 12 13 14 15 16 17 18 19 20 21 22 23 24 25 26 27 28 29 30 31 32 33 34 35 36 37 38 39 40 41 42 43 44 45 46 47 48 49 50
000
ASUS43 KGLD 171059
RWRGLD

GOODLAND FORECAST AREA HOURLY WEATHER ROUNDUP
NATIONAL WEATHER SERVICE GOODLAND KS
500 AM MDT WED SEP 17 2014

...OFFICIAL OBSERVATIONS...

CITY           SKY/WX    TMP DP  RH WIND       PRES   REMARKS
GOODLAND KS    CLEAR     55  49  80 W5        29.98S
HILL CITY KS   FOG       55  54  96 N7        29.92R VSB 1/4
IMPERIAL NEB   CLEAR     49  48  97 W3        29.95F
MCCOOK NEB     FOG       50  49  96 NW5       29.94F VSB 1
AKRON CO       CLEAR     53  43  68 NW8       30.03F
BURLINGTON CO  CLEAR     50  46  86 W5        30.01S
LIMON CO       CLEAR     45  41  86 N6        30.09F
$$

...UNOFFICIAL OBSERVATIONS...

CITY           SKY/WX    TMP DP  RH WIND       PRES   REMARKS
COLBY KS       CLEAR     54  54 100 NW3       29.96S
GOVE KS          N/A     56  32  40 MISG        N/A
NORTON KS      CLEAR     50  48  93 N7        29.92S FOG
SHARON SPRINGS   N/A     56  51  85 NW5         N/A
WAKEENEY KS      N/A     62  57  86 MISG        N/A
TRENTON NEB      N/A     52  32  46 CALM        N/A
YUMA CO          N/A     51  46  84 CALM        N/A
$$


USA.gov is the U.S. government's official web portal to all federal, state and local government web resources and services.